Theta_e
293 293 293 294 294 293 293 293 293 293 293 292 292 292 293 293 293 293 292 293 292 292 291 291 291 290 291 290 291 289 288 289 288 289 291 290 290 289 289 290 289 292 294 291 292 292 294 290 291 291 290 289 289 290
293 293 293 293 293 293 293 293 293 293 292 292 292 292 292 292 293 292 291 291 291 291 290 290 290 291 291 291 290 289 287 289 291 291 291 291 291 288 287 290 290 293 288 288 291 293 289 288 288 288 288 288 289 290
293 293 293 293 293 293 293 293 293 292 292 292 292 292 292 292 292 291 290 289 290 289 290 291 290 289 288 289 289 288 289 291 291 291 291 291 290 289 288 288 287 289 287 287 287 290 286 287 288 287 288 288 289 290
292 292 293 293 293 293 293 293 292 292 292 292 292 292 292 292 292 289 289 288 289 288 289 290 289 289 288 288 288 289 290 289 290 290 291 290 291 289 288 288 288 284 286 284 285 287 285 288 286 287 288 288 290 290
292 293 294 293 293 293 293 292 292 292 291 292 292 291 291 291 291 290 289 288 288 288 287 288 289 288 288 288 290 289 289 289 289 290 291 290 290 290 289 289 283 282 283 284 285 284 285 286 286 287 288 288 289 290
292 293 293 292 292 292 292 292 292 291 291 291 291 291 290 291 289 290 291 289 289 287 288 288 289 288 287 287 290 289 289 287 289 289 288 288 286 287 288 286 281 280 281 283 284 286 286 286 287 288 288 288 288 287
293 292 291 292 292 293 292 291 291 291 291 291 290 290 289 290 291 291 290 289 288 288 288 287 289 287 287 288 290 289 289 286 288 287 285 286 284 286 282 279 279 279 280 282 285 287 287 287 287 288 288 287 287 286
292 291 291 292 293 293 290 291 291 291 290 289 288 287 290 290 288 289 288 288 287 288 288 284 286 287 287 287 287 289 288 286 286 284 285 283 283 282 280 279 279 279 280 282 286 287 287 287 287 287 286 286 286 285
291 291 291 292 293 291 290 290 290 290 289 287 285 288 288 288 289 288 286 287 287 287 285 284 284 285 285 287 286 287 289 287 286 284 283 283 281 279 280 280 279 280 282 284 285 285 285 286 286 286 286 285 285 285
290 290 291 292 292 291 290 290 290 288 284 285 287 288 286 287 282 286 286 286 282 282 283 282 283 284 284 285 288 288 289 287 284 284 285 284 281 280 280 280 280 281 281 282 283 283 285 284 284 284 285 285 284 284
290 290 291 291 291 289 290 289 289 284 285 287 287 285 285 282 285 284 279 279 280 280 282 281 280 282 284 284 285 286 287 286 283 286 285 284 281 280 279 279 280 280 281 281 281 282 282 282 283 283 283 283 283 283
289 289 290 291 289 290 289 288 285 283 283 284 284 282 282 280 280 277 276 279 280 281 281 279 280 281 282 284 287 285 285 283 283 285 283 282 281 280 279 279 279 279 280 280 280 280 280 280 281 282 282 282 282 282
289 289 290 291 289 289 288 286 283 282 283 282 282 276 278 276 276 276 276 279 280 280 279 280 280 283 283 285 286 283 282 284 285 283 284 282 280 279 279 279 279 279 279 279 279 279 279 279 279 280 281 281 281 281
288 289 290 289 289 288 285 284 282 281 281 277 277 275 276 275 277 278 277 278 278 277 278 279 281 284 284 285 284 281 284 285 282 282 282 280 279 279 279 278 278 278 278 278 278 279 278 278 278 278 278 279 280 280
288 290 289 289 288 286 284 283 282 281 281 277 277 275 275 277 276 275 275 276 278 279 279 280 281 283 285 283 282 282 280 282 285 283 281 277 278 279 278 278 278 278 277 277 277 277 278 277 277 277 277 278 278 278
289 289 289 287 286 283 283 282 282 281 280 276 276 276 278 277 276 277 277 277 278 278 279 280 281 282 281 282 279 280 281 283 283 280 279 277 278 278 277 277 277 276 276 276 276 277 277 277 277 277 276 277 277 277
288 289 287 286 283 283 283 283 282 278 276 277 276 278 277 278 275 277 278 277 277 278 282 281 279 280 280 280 279 280 282 281 280 278 278 277 277 277 276 276 276 276 275 275 275 275 276 276 276 276 276 277 277 277
288 287 286 284 283 283 283 282 281 276 277 275 277 276 278 279 277 277 276 277 277 279 280 277 278 279 279 280 280 279 279 278 278 277 277 276 276 275 275 275 274 275 275 274 274 274 274 274 275 276 276 276 277 277
287 285 284 283 283 283 282 277 279 276 276 277 278 277 277 277 277 276 276 277 277 277 277 275 273 276 278 278 279 279 278 278 276 276 275 274 274 274 274 274 274 273 273 274 274 274 274 274 274 275 276 276 276 277
285 284 283 282 283 282 275 274 278 276 277 278 277 277 276 276 276 276 276 276 277 276 273 272 275 275 276 277 278 278 277 277 276 276 275 274 274 273 273 273 273 273 272 273 273 274 273 274 273 274 276 276 275 276
283 283 282 282 281 279 273 269 271 271 275 278 277 278 279 277 274 273 275 276 274 273 274 273 274 275 275 275 276 277 277 277 276 276 275 274 273 273 273 272 272 272 272 272 272 272 272 273 274 273 273 274 275 276
282 281 281 280 278 276 269 270 270 271 273 273 276 277 277 277 276 273 276 272 273 274 274 274 275 275 274 274 274 275 276 276 275 275 275 274 273 273 272 272 272 272 271 270 271 271 271 272 274 272 273 273 274 275
281 281 279 278 273 271 270 271 271 268 273 272 270 276 275 275 272 274 274 274 275 275 274 274 273 273 273 273 273 273 274 274 273 273 272 272 272 272 271 271 270 270 270 270 270 270 270 272 272 272 272 273 273 274
279 275 269 269 270 272 270 269 272 272 269 270 272 274 276 274 272 275 276 276 275 275 275 274 274 273 273 273 272 271 272 272 272 272 272 272 271 271 271 270 270 270 269 269 270 270 270 270 271 270 271 272 273 273
274 271 270 270 269 271 270 271 269 271 272 269 270 271 271 268 277 279 278 276 276 276 275 274 275 275 274 272 272 271 272 272 272 271 271 271 271 271 271 270 270 269 270 270 269 269 269 269 270 270 270 271 273 272
271 268 270 271 271 273 272 273 271 270 269 269 271 269 267 271 275 276 278 276 276 275 275 275 275 274 273 273 272 272 271 272 272 271 270 271 271 271 270 270 271 270 269 269 269 269 269 269 269 269 269 269 270 270
272 270 273 274 273 273 273 272 272 271 269 270 270 269 269 272 272 273 272 273 274 274 274 274 274 274 273 272 271 271 271 272 272 272 271 271 271 271 271 270 270 270 270 270 270 269 269 269 269 270 269 269 269 269
272 272 271 270 271 270 270 270 269 269 270 270 271 269 270 272 273 271 271 271 272 272 272 272 272 272 272 272 272 271 271 271 271 271 271 271 271 271 271 270 270 270 270 271 270 269 269 269 270 269 269 269 269 270
271 273 273 267 266 268 267 269 269 270 270 269 269 271 270 270 270 271 270 270 271 271 271 271 271 271 271 271 271 271 271 271 271 269 269 269 271 271 271 271 271 271 271 271 270 269 269 271 269 269 269 269 269 269
269 269 268 264 268 270 267 266 266 266 268 266 266 267 268 268 270 270 270 270 270 271 271 272 272 271 271 271 271 271 271 271 271 271 271 270 271 271 271 271 271 271 271 270 270 270 270 270 270 270 269 269 269 269
268 267 267 268 267 265 263 265 266 266 265 261 264 263 265 264 269 269 269 270 270 271 271 271 271 271 271 271 271 271 271 271 271 271 271 271 271 271 272 272 272 271 270 270 270 269 269 269 269 268 268 268 268 268
267 264 266 267 266 261 265 261 261 262 262 262 263 260 261 263 266 269 269 269 269 270 271 271 271 272 272 271 272 271 272 272 272 271 271 271 271 272 272 272 272 271 270 270 270 269 269 269 268 268 268 268 267 267
260 261 260 262 263 264 262 262 263 262 262 263 264 263 262 265 267 269 269 268 269 270 271 271 271 272 272 272 271 271 271 271 271 271 270 270 271 273 273 272 271 271 270 270 269 269 268 268 268 268 267 267 267 267
Wind_Speed
7 4 4 5 7 9 11 13 14 16 17 18 19 20 21 22 22 18 17 8 2 2 7 3 7 4 5 3 4 5 5 2 2 1 2 3 2 3 2 7 3 3 5 2 2 2 3 22 8 8 9 13 16 17
7 4 4 6 8 10 12 13 15 16 18 18 19 20 20 21 19 14 7 11 8 4 4 17 14 11 9 9 4 1 3 4 2 2 1 3 2 2 3 3 5 3 1 2 6 3 7 6 9 9 11 14 14 15
6 4 3 6 9 10 12 14 15 17 18 19 20 20 19 19 14 12 4 9 3 2 4 3 2 0 5 5 4 1 2 1 3 1 1 2 3 1 2 3 5 5 9 4 9 6 19 13 11 13 14 16 15 14
6 3 3 7 9 11 13 15 16 17 18 20 20 20 19 16 9 7 1 5 2 4 3 1 3 1 3 6 7 11 14 12 5 3 3 2 2 2 2 1 3 4 5 7 6 5 19 3 20 18 17 14 13 12
5 3 5 6 9 11 13 16 17 17 20 21 20 19 18 11 5 3 2 2 4 1 2 3 13 2 5 10 7 8 6 6 4 3 3 2 1 2 2 3 3 5 4 3 3 15 12 16 18 17 12 14 12 11
5 3 4 7 10 12 15 16 16 17 21 21 20 19 14 6 5 3 2 4 7 4 2 3 0 1 8 12 5 8 7 2 2 3 3 2 2 3 2 3 3 12 9 10 6 12 15 17 15 9 11 10 10 9
5 3 5 7 10 13 15 14 17 19 21 20 20 14 5 3 1 1 2 4 8 3 2 3 2 1 8 3 3 1 3 1 2 2 2 3 3 5 3 3 14 15 13 14 11 9 7 6 6 9 8 9 11 13
5 4 5 8 12 13 14 17 17 20 19 20 13 5 2 4 3 2 3 6 8 3 2 1 3 3 5 3 3 1 1 2 3 1 2 2 2 3 3 12 12 13 16 8 6 6 6 6 7 8 11 9 10 10
3 4 6 10 13 15 14 18 18 19 19 14 5 3 2 1 2 1 9 4 4 2 1 2 2 3 4 2 2 2 1 2 1 2 2 3 3 4 9 13 12 14 11 8 7 7 7 8 8 9 9 10 11 10
4 6 8 10 14 15 15 17 19 18 16 6 2 1 1 2 8 3 1 0 3 2 3 2 3 2 2 3 2 2 2 1 2 1 2 2 3 5 11 10 9 11 10 10 8 11 8 10 11 12 12 10 11 11
5 7 8 10 13 13 16 17 16 17 4 2 3 2 4 5 4 3 1 3 2 3 3 2 2 3 3 2 2 1 2 2 3 2 2 2 3 10 13 12 12 13 13 11 13 13 13 12 11 12 13 18 20 22
5 7 7 10 10 15 14 13 13 10 3 1 2 4 4 5 3 4 1 2 4 2 2 2 2 2 3 2 2 3 1 3 2 1 3 3 4 11 13 14 14 16 16 16 20 18 22 22 20 20 20 21 23 23
5 5 7 8 9 13 13 9 11 6 2 3 4 4 3 4 6 4 4 3 3 3 3 3 4 2 3 3 2 2 4 1 0 3 2 2 6 8 10 10 11 18 19 20 22 23 23 23 27 25 22 21 21 22
5 5 7 5 11 11 12 7 7 2 2 3 4 6 4 3 2 1 2 2 2 2 4 4 3 2 2 2 2 3 2 2 3 2 2 2 6 7 7 8 9 12 17 18 19 21 21 21 22 25 23 21 21 21
3 6 4 4 10 10 7 3 5 4 5 3 4 3 1 2 2 0 1 2 2 2 2 3 3 2 1 2 1 2 4 3 3 2 2 1 4 6 7 8 10 11 15 15 17 18 19 21 21 20 21 21 21 20
4 1 3 11 9 9 2 2 4 4 4 3 4 3 3 1 0 1 0 2 1 2 2 2 3 2 1 2 3 2 2 2 2 2 3 2 5 7 7 11 13 14 15 14 16 17 20 20 17 16 20 22 20 20
3 2 8 9 8 2 2 2 3 5 3 3 1 1 2 2 3 2 2 3 6 2 1 1 2 1 2 1 2 3 3 4 5 4 4 7 6 6 8 11 13 14 16 16 16 17 17 16 16 18 18 19 19 19
3 7 7 6 5 2 2 5 4 4 4 1 2 1 1 0 1 2 3 4 2 3 3 1 2 1 2 1 2 1 4 6 5 5 5 7 9 9 10 10 12 13 14 13 14 15 17 16 15 15 16 15 16 17
3 4 5 6 3 3 3 4 4 3 1 1 2 1 1 0 4 4 2 2 2 3 1 2 3 2 2 2 2 4 3 3 5 4 6 10 10 10 10 11 12 12 13 14 14 14 13 15 14 16 15 15 14 15
2 4 8 5 4 3 4 3 3 3 2 1 1 0 1 1 1 2 3 3 3 2 3 3 2 1 2 2 3 4 4 7 5 5 5 6 9 11 11 10 9 9 11 12 14 14 14 13 16 15 13 13 14 14
2 5 5 3 3 8 6 2 3 1 0 1 1 1 1 1 1 1 1 2 2 2 1 1 1 2 4 6 9 9 7 8 3 2 3 3 7 9 10 11 10 11 11 12 11 13 14 14 13 15 14 13 12 13
4 3 2 4 4 3 3 4 2 0 1 1 1 1 0 1 1 1 1 2 2 1 1 1 1 2 3 4 8 10 11 15 15 15 13 10 6 7 8 9 10 11 12 12 12 11 12 15 15 16 15 14 13 12
3 4 4 5 5 5 2 2 3 4 2 2 1 1 1 1 1 1 2 1 1 2 3 3 5 8 7 7 10 12 11 12 12 12 12 12 11 10 10 11 12 12 10 12 11 12 14 13 15 15 15 14 15 14
3 5 4 3 4 1 1 3 1 2 3 3 2 1 1 1 2 1 2 1 2 2 4 5 5 5 6 7 6 8 10 11 13 11 9 8 9 9 9 10 10 10 9 9 13 14 15 15 13 15 13 14 16 15
5 7 4 5 3 5 4 4 4 4 1 1 2 2 2 2 0 1 2 2 3 2 4 3 1 3 2 3 5 6 7 8 10 10 8 8 9 8 7 6 6 10 11 12 14 13 14 15 14 14 13 13 14 15
6 4 3 1 2 3 1 1 2 1 1 3 1 2 1 1 2 2 1 2 2 2 4 4 3 2 3 4 6 5 6 9 9 9 6 6 6 7 6 4 1 4 10 11 11 13 14 16 15 15 14 14 11 12
3 2 1 1 0 1 1 1 1 1 1 0 2 3 2 1 2 2 0 3 2 4 8 7 5 4 8 7 6 6 6 7 5 5 7 5 3 2 3 3 4 6 10 11 9 12 14 17 16 15 16 15 13 11
2 1 2 2 2 1 2 1 1 2 1 1 1 1 3 5 3 1 2 2 6 9 9 7 6 7 8 7 6 6 6 6 6 4 4 2 1 2 1 2 5 7 9 8 10 11 13 12 14 15 15 15 13 9
2 1 2 3 2 2 1 2 2 0 1 0 2 2 2 1 1 2 2 5 8 9 9 8 6 6 6 6 5 4 5 8 9 3 2 1 1 1 2 2 4 7 7 9 9 8 10 10 11 12 12 10 9 8
1 1 3 2 2 2 3 1 1 1 0 0 1 3 2 3 4 6 7 9 10 9 8 8 8 8 7 7 6 4 5 9 7 4 3 3 4 3 1 3 5 5 8 9 10 10 9 9 9 8 8 7 7 9
1 1 3 1 2 2 1 1 2 1 0 0 1 2 3 3 4 7 11 11 11 10 10 9 9 10 9 9 8 6 7 8 7 5 4 3 4 3 1 5 3 6 8 10 10 11 10 10 10 10 9 9 9 10
2 2 3 1 3 2 1 0 1 1 1 0 2 1 3 2 3 6 6 16 14 13 12 10 11 10 10 9 8 7 3 3 8 8 6 6 6 2 7 4 4 6 8 10 12 11 10 10 10 10 10 10 10 11
2 2 2 2 3 3 2 2 2 3 1 1 2 2 2 2 4 2 4 15 16 14 12 11 9 9 8 10 10 7 5 4 5 6 5 3 4 7 8 8 6 7 10 12 13 11 10 10 10 10 10 11 11 12
Wind_Direction
194 213 264 301 308 318 322 328 331 331 329 330 330 329 324 325 328 328 313 334 264 253 285 285 346 309 324 320 302 328 349 11 311 306 312 343 312 315 315 301 310 318 319 320 282 323 335 354 5 43 329 325 323 327
191 218 270 293 307 315 322 330 330 328 329 329 330 328 326 327 331 328 300 333 314 233 265 295 285 287 281 282 298 283 252 320 287 285 288 297 302 313 323 302 359 53 83 253 17 22 355 23 54 11 351 331 323 327
196 219 270 302 309 317 325 328 329 327 326 329 328 326 327 328 325 329 319 331 331 278 278 245 89 97 335 305 274 210 253 76 232 254 262 264 264 88 294 309 354 20 23 39 339 2 353 328 21 5 349 331 331 329
192 217 282 301 310 322 324 328 328 325 326 328 326 326 327 326 309 328 13 16 359 301 286 286 44 27 337 347 298 265 271 285 256 241 239 229 254 122 269 249 73 332 351 321 268 346 336 360 346 342 334 330 335 347
193 227 283 311 322 326 326 327 326 325 329 326 326 327 322 317 300 259 77 59 31 352 293 302 308 228 354 344 345 349 267 262 251 212 201 219 330 337 242 118 66 3 337 329 292 314 290 302 313 318 328 325 341 348
195 237 302 324 327 328 329 327 327 327 326 325 326 325 318 294 318 181 205 195 334 356 274 302 4 82 343 347 325 325 348 326 293 33 6 61 11 321 354 49 51 348 315 292 287 292 294 292 301 337 327 350 6 16
214 261 313 326 328 331 331 335 329 328 328 329 328 321 315 263 107 262 62 329 329 304 270 301 305 77 343 306 313 322 317 6 37 53 32 353 12 351 51 12 327 323 314 306 291 310 299 352 319 334 4 22 29 39
245 277 311 325 332 332 337 334 331 331 333 331 326 339 140 120 116 87 297 337 336 258 236 342 302 2 19 314 309 139 293 50 5 85 36 13 16 21 59 334 322 320 320 318 338 347 340 349 17 22 36 43 51 42
254 298 312 322 334 334 332 335 333 333 333 325 339 130 119 72 29 15 299 302 335 5 49 63 3 313 7 271 279 301 214 77 274 45 18 63 16 38 335 329 334 328 327 322 349 7 14 35 38 39 46 45 58 55
284 313 311 324 334 330 334 336 336 335 333 343 67 147 109 5 330 351 312 206 4 334 12 63 341 299 2 337 277 320 2 30 77 259 123 63 91 350 351 337 337 342 356 11 30 27 29 39 44 45 48 50 56 57
286 305 315 332 328 339 339 340 339 345 353 22 27 46 305 359 41 338 19 61 313 44 19 338 98 322 350 317 308 64 321 331 54 341 64 53 31 2 351 358 360 3 18 34 51 49 48 46 48 51 52 54 55 55
290 301 316 328 345 347 345 344 346 6 9 39 75 43 21 36 360 78 323 336 41 54 26 351 312 273 295 282 273 338 28 29 37 326 54 35 13 358 0 3 6 12 26 40 45 49 48 44 45 51 50 50 51 54
295 289 311 330 348 348 346 346 353 12 91 65 59 45 39 345 29 46 356 349 31 9 31 336 322 298 285 231 275 356 55 52 316 37 59 62 3 6 3 359 7 19 31 40 42 44 47 46 45 45 47 48 54 54
297 299 325 314 344 350 348 350 360 36 79 68 57 22 72 352 20 321 336 344 347 2 330 318 280 299 302 323 318 64 282 38 54 54 55 36 11 4 10 9 13 22 29 34 38 43 47 46 49 46 44 46 52 52
284 322 308 5 353 345 350 17 30 66 65 66 53 56 24 204 213 236 305 295 273 297 310 307 270 235 309 336 340 1 33 61 36 80 68 21 19 16 21 23 25 30 31 34 38 39 44 46 46 44 42 46 53 55
332 99 63 347 345 346 9 103 55 70 68 67 54 30 297 319 359 258 307 285 319 342 306 233 271 294 29 314 38 1 57 77 97 79 101 94 48 35 28 31 37 37 38 35 38 42 46 44 42 45 47 46 47 55
87 106 326 340 345 25 105 97 69 51 104 71 72 230 225 226 229 266 329 348 0 303 293 3 342 5 305 53 58 1 27 98 103 89 70 59 48 40 36 39 41 42 37 34 35 36 39 43 46 45 42 41 51 57
65 323 340 350 348 125 77 53 82 81 77 177 117 266 316 30 346 17 359 8 316 346 355 39 322 4 17 60 95 86 78 76 72 74 71 59 52 46 50 52 46 39 38 39 41 44 40 34 33 34 34 39 44 50
335 344 358 359 101 95 75 42 43 100 141 148 116 227 102 46 79 35 341 328 360 11 40 9 54 28 63 352 77 103 112 114 115 94 78 68 64 51 46 48 49 43 37 36 46 44 46 44 39 35 36 42 38 43
73 38 20 57 92 84 61 13 38 103 133 150 54 83 101 85 57 61 37 25 39 49 37 41 25 38 3 329 26 87 98 124 128 115 98 70 64 66 59 51 44 44 46 45 44 52 43 41 36 40 40 39 40 31
88 14 29 66 70 61 77 357 46 79 88 117 35 225 141 120 60 68 64 11 60 27 69 356 48 65 39 21 44 80 75 90 62 83 111 105 77 71 62 55 59 55 51 39 36 33 32 21 26 30 35 32 28 36
28 31 71 53 78 77 77 25 110 181 59 161 128 301 108 139 112 39 187 61 62 33 22 6 17 62 70 49 54 73 87 91 91 93 92 99 78 66 53 47 53 55 50 35 29 23 19 17 22 23 27 22 30 32
72 51 55 25 70 46 298 3 68 354 97 270 16 125 14 106 188 326 85 105 112 62 72 85 74 88 95 91 86 79 89 98 88 88 94 94 87 79 72 60 58 55 44 32 33 32 27 20 23 14 23 28 24 18
65 52 50 52 53 13 28 10 26 57 33 28 40 56 345 352 321 124 95 95 105 117 114 122 128 117 101 82 71 71 76 105 104 96 93 102 93 76 73 68 56 51 48 41 42 37 29 22 12 16 20 20 17 10
71 341 59 3 338 50 34 8 347 45 48 329 45 345 311 355 269 114 137 140 150 144 140 150 112 82 102 105 107 100 103 116 124 107 91 106 108 100 83 71 61 45 33 37 32 26 22 15 15 15 16 11 7 4
71 311 78 303 320 88 306 44 26 284 52 5 276 256 21 28 58 199 111 137 123 143 160 172 153 128 94 121 138 141 132 127 127 113 111 121 121 116 97 79 98 28 18 20 10 12 10 2 2 3 2 3 2 357
80 311 358 86 229 95 53 47 11 100 65 95 303 358 45 51 260 247 125 38 91 135 156 156 155 138 153 150 139 144 153 155 141 136 152 147 115 88 85 71 43 8 1 360 4 2 352 343 348 351 345 346 355 357
135 60 114 282 55 17 136 21 127 173 227 250 43 352 171 194 233 233 55 141 150 154 149 143 140 141 144 153 155 158 160 170 167 147 153 197 256 287 301 22 6 1 344 352 353 340 329 342 342 335 331 331 339 352
81 10 105 10 355 41 167 169 213 134 21 72 166 254 251 254 221 179 181 179 167 164 157 154 148 153 152 156 152 161 175 167 154 125 157 161 158 138 137 10 356 349 354 349 351 341 341 340 331 329 325 332 339 345
282 4 90 58 123 234 230 124 205 226 262 199 282 304 274 259 246 226 208 188 182 187 187 186 183 177 174 177 181 178 171 187 195 201 175 187 188 163 128 357 347 360 356 353 352 357 358 359 357 355 355 356 355 352
87 77 62 65 236 243 195 334 285 252 301 252 198 185 260 300 292 237 213 202 195 196 192 190 194 198 198 198 200 200 215 207 196 192 184 175 159 144 47 348 346 352 353 354 352 350 354 358 360 1 0 360 359 355
40 95 115 333 287 283 260 63 230 244 251 55 263 182 314 340 273 204 208 198 198 201 207 209 211 217 216 213 208 209 209 187 199 200 198 181 166 75 356 343 323 331 338 342 344 342 339 341 345 348 351 354 354 356
48 45 29 36 347 343 300 61 354 328 328 274 259 202 228 216 244 259 208 200 210 212 209 210 216 217 215 208 202 202 208 209 196 193 194 211 275 305 329 324 317 320 320 323 325 325 325 328 332 336 336 339 343 344